SCO25TU EGAA-EGPF

Flight info

Callsign SCO25TU
Flight time 0h 29m
Altitude 15000
Route BLACA
Aircraft A320/M-SDE3FGHIRWY/LB1

Departure

Time 2026-05-07 17:54
Airport Belfast International Airport (EGAA)

Arrival

Time 2026-05-07 18:23
Airport Glasgow Airport (EGPF)
Time Latitude Longitude Altitude Speed Heading
2026-05-07 17:33 54.66090 -6.21489 272 ft 0 kts 335°
2026-05-07 17:43 54.66087 -6.21487 272 ft 2 kts 335°
2026-05-07 17:44 54.66071 -6.21473 272 ft 3 kts 333°
2026-05-07 17:44 54.66053 -6.21457 274 ft 3 kts 333°
2026-05-07 17:44 54.66034 -6.21442 276 ft 3 kts 336°
2026-05-07 17:44 54.66016 -6.21430 275 ft 3 kts 348°
2026-05-07 17:45 54.65998 -6.21427 274 ft 2 kts 10°
2026-05-07 17:45 54.65981 -6.21434 273 ft 3 kts 32°
2026-05-07 17:45 54.65967 -6.21456 276 ft 3 kts 59°
2026-05-07 17:45 54.65958 -6.21484 275 ft 2 kts 65°
2026-05-07 17:46 54.65957 -6.21490 276 ft 0 kts 65°
2026-05-07 17:50 54.65960 -6.21480 274 ft 5 kts 65°
2026-05-07 17:50 54.65978 -6.21408 275 ft 6 kts 66°
2026-05-07 17:50 54.65995 -6.21344 272 ft 7 kts 64°
2026-05-07 17:50 54.66037 -6.21193 272 ft 15 kts 65°
2026-05-07 17:51 54.66080 -6.21033 272 ft 17 kts 64°
2026-05-07 17:51 54.66133 -6.20838 272 ft 16 kts 65°
2026-05-07 17:51 54.66177 -6.20677 272 ft 14 kts 65°
2026-05-07 17:51 54.66216 -6.20532 272 ft 13 kts 65°
2026-05-07 17:52 54.66252 -6.20397 273 ft 15 kts 65°
2026-05-07 17:52 54.66304 -6.20205 272 ft 17 kts 65°
2026-05-07 17:52 54.66352 -6.20025 272 ft 16 kts 65°
2026-05-07 17:52 54.66392 -6.19860 272 ft 14 kts 75°
2026-05-07 17:53 54.66365 -6.19719 272 ft 13 kts 136°
2026-05-07 17:53 54.66280 -6.19647 275 ft 8 kts 166°
2026-05-07 17:53 54.66251 -6.19722 272 ft 10 kts 243°
2026-05-07 17:53 54.66137 -6.20140 275 ft 75 kts 245°
2026-05-07 17:54 54.65824 -6.21303 272 ft 136 kts 245°
2026-05-07 17:54 54.65359 -6.22908 533 ft 159 kts 237°
2026-05-07 17:54 54.64852 -6.24754 1016 ft 179 kts 248°
2026-05-07 17:54 54.64783 -6.26953 1691 ft 194 kts 279°
2026-05-07 17:55 54.65480 -6.29063 2328 ft 216 kts 313°
2026-05-07 17:55 54.66855 -6.30314 2991 ft 236 kts 345°
2026-05-07 17:55 54.68516 -6.30225 3794 ft 246 kts 16°
2026-05-07 17:55 54.69971 -6.28665 4661 ft 251 kts 48°
2026-05-07 17:56 54.70785 -6.26000 5501 ft 253 kts 75°
2026-05-07 17:56 54.71271 -6.23062 6364 ft 256 kts 77°
2026-05-07 17:56 54.71756 -6.20045 6996 ft 270 kts 77°
2026-05-07 17:56 54.72275 -6.16789 7488 ft 289 kts 76°
2026-05-07 17:57 54.72819 -6.13399 8276 ft 296 kts 76°
2026-05-07 17:57 54.73187 -6.11118 8851 ft 299 kts 76°
2026-05-07 17:57 54.73943 -6.06454 10029 ft 303 kts 76°
2026-05-07 17:57 54.74533 -6.02827 10425 ft 325 kts 76°
2026-05-07 17:58 54.75164 -5.98952 10860 ft 342 kts 76°
2026-05-07 17:58 54.75596 -5.96305 11308 ft 347 kts 76°
2026-05-07 17:58 54.76257 -5.92253 12053 ft 352 kts 76°
2026-05-07 17:58 54.76923 -5.88142 12809 ft 357 kts 76°
2026-05-07 17:59 54.77595 -5.83970 13573 ft 362 kts 76°
2026-05-07 17:59 54.78274 -5.79737 14236 ft 367 kts 76°
2026-05-07 17:59 54.78960 -5.75455 14751 ft 371 kts 76°
2026-05-07 17:59 54.79651 -5.71137 14904 ft 372 kts 76°
2026-05-07 18:00 54.80340 -5.66831 14941 ft 371 kts 76°
2026-05-07 18:00 54.81029 -5.62511 14940 ft 371 kts 76°
2026-05-07 18:00 54.81715 -5.58202 14934 ft 371 kts 76°
2026-05-07 18:00 54.82400 -5.53883 14934 ft 371 kts 76°
2026-05-07 18:01 54.83082 -5.49572 14934 ft 371 kts 77°
2026-05-07 18:01 54.83774 -5.45165 14936 ft 391 kts 77°
2026-05-07 18:01 54.84502 -5.40489 14929 ft 409 kts 77°
2026-05-07 18:01 54.85248 -5.35697 14935 ft 413 kts 77°
2026-05-07 18:02 54.86746 -5.26062 14934 ft 414 kts 77°
2026-05-07 18:02 54.87669 -5.21314 14941 ft 416 kts 66°
2026-05-07 18:02 54.89222 -5.17084 14945 ft 418 kts 50°
2026-05-07 18:03 54.91346 -5.13649 14946 ft 419 kts 35°
2026-05-07 18:03 54.93866 -5.11128 14944 ft 418 kts 25°
2026-05-07 18:03 54.96477 -5.08897 14939 ft 419 kts 25°
2026-05-07 18:03 54.99086 -5.06638 14940 ft 418 kts 25°
2026-05-07 18:04 55.01688 -5.04370 14940 ft 419 kts 25°
2026-05-07 18:04 55.04291 -5.02099 14947 ft 419 kts 25°
2026-05-07 18:04 55.06901 -4.99825 14942 ft 419 kts 25°
2026-05-07 18:04 55.09508 -4.97554 14941 ft 419 kts 25°
2026-05-07 18:05 55.12102 -4.95294 14626 ft 414 kts 25°
2026-05-07 18:05 55.14669 -4.93051 14051 ft 411 kts 25°
2026-05-07 18:05 55.17216 -4.90819 13477 ft 407 kts 26°
2026-05-07 18:05 55.19735 -4.88605 12863 ft 404 kts 26°
2026-05-07 18:06 55.22236 -4.86406 12465 ft 402 kts 25°
2026-05-07 18:06 55.24737 -4.84211 12206 ft 401 kts 25°
2026-05-07 18:06 55.27223 -4.82027 11945 ft 400 kts 25°
2026-05-07 18:06 55.29699 -4.79817 11670 ft 399 kts 28°
2026-05-07 18:07 55.31922 -4.76940 11419 ft 397 kts 44°
2026-05-07 18:07 55.33738 -4.73303 11176 ft 396 kts 49°
2026-05-07 18:07 55.35805 -4.70136 10914 ft 394 kts 35°
2026-05-07 18:07 55.38012 -4.67400 10674 ft 393 kts 34°
2026-05-07 18:08 55.40250 -4.64649 10426 ft 391 kts 34°
2026-05-07 18:08 55.42509 -4.61873 10177 ft 390 kts 34°
2026-05-07 18:08 55.44690 -4.59190 9934 ft 380 kts 34°
2026-05-07 18:08 55.46770 -4.56620 9718 ft 353 kts 34°
2026-05-07 18:09 55.48747 -4.54168 9447 ft 342 kts 34°
2026-05-07 18:09 55.50669 -4.51781 9176 ft 334 kts 34°
2026-05-07 18:09 55.52543 -4.49447 8909 ft 325 kts 34°
2026-05-07 18:09 55.54368 -4.47174 8644 ft 318 kts 34°
2026-05-07 18:10 55.56153 -4.44947 8364 ft 311 kts 34°
2026-05-07 18:10 55.57896 -4.42772 8045 ft 300 kts 34°
2026-05-07 18:10 55.59538 -4.40721 7933 ft 279 kts 34°
2026-05-07 18:10 55.61118 -4.38746 7923 ft 279 kts 34°
2026-05-07 18:11 55.62703 -4.36764 7783 ft 278 kts 34°
2026-05-07 18:11 55.63765 -4.35434 7697 ft 277 kts 34°
2026-05-07 18:11 55.65843 -4.32832 7527 ft 276 kts 34°
2026-05-07 18:11 55.67409 -4.30873 7399 ft 275 kts 34°
2026-05-07 18:12 55.68972 -4.28908 7264 ft 275 kts 34°
2026-05-07 18:12 55.70533 -4.26952 7142 ft 275 kts 34°
2026-05-07 18:12 55.72091 -4.24995 7025 ft 275 kts 34°
2026-05-07 18:12 55.73649 -4.23024 6901 ft 275 kts 34°
2026-05-07 18:13 55.75206 -4.21056 6776 ft 274 kts 34°
2026-05-07 18:13 55.76734 -4.19130 6620 ft 263 kts 34°
2026-05-07 18:13 55.78221 -4.17247 6480 ft 263 kts 34°
2026-05-07 18:13 55.79708 -4.15367 6315 ft 262 kts 34°
2026-05-07 18:14 55.81191 -4.13496 6085 ft 261 kts 34°
2026-05-07 18:14 55.82677 -4.11623 5847 ft 261 kts 34°
2026-05-07 18:14 55.84152 -4.09765 5604 ft 260 kts 34°
2026-05-07 18:14 55.85655 -4.07993 5383 ft 257 kts 23°
2026-05-07 18:15 55.87343 -4.07028 5147 ft 253 kts 11°
2026-05-07 18:15 55.89028 -4.06341 4913 ft 244 kts
2026-05-07 18:15 55.90651 -4.05709 4677 ft 234 kts
2026-05-07 18:15 55.92212 -4.05103 4433 ft 225 kts
2026-05-07 18:16 55.93696 -4.04537 4250 ft 213 kts
2026-05-07 18:16 55.95137 -4.04380 4010 ft 203 kts 341°
2026-05-07 18:16 55.96430 -4.05313 3745 ft 200 kts 326°
2026-05-07 18:16 55.97653 -4.06484 3540 ft 198 kts 324°
2026-05-07 18:17 55.98862 -4.07678 3487 ft 198 kts 323°
2026-05-07 18:17 55.99849 -4.09257 3488 ft 186 kts 291°
2026-05-07 18:17 56.00195 -4.11402 3498 ft 178 kts 272°
2026-05-07 18:17 56.00352 -4.13589 3499 ft 178 kts 269°
2026-05-07 18:18 56.00484 -4.15784 3487 ft 178 kts 265°
2026-05-07 18:18 56.00320 -4.17938 3513 ft 174 kts 246°
2026-05-07 18:18 55.99728 -4.19765 3419 ft 168 kts 225°
2026-05-07 18:18 55.98928 -4.21278 3265 ft 168 kts 224°
2026-05-07 18:19 55.98132 -4.22778 3036 ft 163 kts 224°
2026-05-07 18:19 55.97373 -4.24210 2813 ft 153 kts 224°
2026-05-07 18:19 55.96656 -4.25561 2624 ft 147 kts 223°
2026-05-07 18:19 55.95962 -4.26868 2434 ft 144 kts 224°
2026-05-07 18:20 55.95277 -4.28157 2231 ft 143 kts 223°
2026-05-07 18:20 55.94595 -4.29440 2041 ft 140 kts 223°
2026-05-07 18:20 55.93952 -4.30651 1865 ft 132 kts 223°
2026-05-07 18:20 55.93329 -4.31822 1682 ft 129 kts 222°
2026-05-07 18:21 55.92711 -4.32982 1501 ft 129 kts 222°
2026-05-07 18:21 55.92097 -4.34134 1321 ft 128 kts 222°
2026-05-07 18:21 55.91487 -4.35281 1139 ft 127 kts 223°
2026-05-07 18:21 55.90871 -4.36434 959 ft 127 kts 223°
2026-05-07 18:22 55.90260 -4.37590 765 ft 128 kts 223°
2026-05-07 18:22 55.89847 -4.38360 641 ft 131 kts 225°
2026-05-07 18:22 55.89023 -4.39917 421 ft 125 kts 222°
2026-05-07 18:22 55.88412 -4.41068 234 ft 129 kts 222°
2026-05-07 18:23 55.87788 -4.42230 65 ft 130 kts 223°
2026-05-07 18:23 55.87205 -4.43314 31 ft 108 kts 225°
2026-05-07 18:23 55.86865 -4.43946 29 ft 32 kts 226°
2026-05-07 18:23 55.86723 -4.44204 29 ft 23 kts 227°
2026-05-07 18:24 55.86632 -4.44249 29 ft 11 kts 132°
2026-05-07 18:24 55.86620 -4.44124 29 ft 10 kts 94°
2026-05-07 18:24 55.86618 -4.44015 29 ft 8 kts 89°
2026-05-07 18:24 55.86640 -4.43933 29 ft 7 kts 48°
2026-05-07 18:25 55.86670 -4.43875 29 ft 6 kts 48°
2026-05-07 18:25 55.86699 -4.43820 29 ft 10 kts 45°
2026-05-07 18:25 55.86741 -4.43692 29 ft 11 kts 71°
2026-05-07 18:25 55.86750 -4.43606 29 ft 6 kts 102°
2026-05-07 18:26 55.86725 -4.43547 29 ft 7 kts 127°
2026-05-07 18:26 55.86700 -4.43491 29 ft 4 kts 128°
2026-05-07 18:26 55.86698 -4.43486 29 ft 0 kts 128°